KUIPER-00057

导读

KUIPER-00057是美国亚马逊公司“柯伊伯计划”卫星互联网项目中的一颗卫星,于2025年6月23日发射入轨。该项目计划在近地轨道部署超3200颗卫星,旨在为全球提供高速可靠的宽带互联网服务,与SpaceX的“星链”项目形成商业竞争,KUIPER-00057的入轨将助力项目拓展全球网络覆盖与连接容量。

Basic Information
目录编号:
64517
目录名称:
KUIPER-00057
国际标识:
2025-134T
轨道中心:
EARTH
卫星名称:
KUIPER-00057
卫星全名:
KUIPER-00057
卫星状态:
在轨 (已飞行399 天)
发射日期:
2025-06-23 UTC
国别 :
美国 (US)
星等 :
--
Orbit Information
数据来源 国际轨道数据
星历时间: 2026-07-27T15:38:32+0800
14小时前
查看轨道信息
半长轴: 7007.654km
偏心率: 0.000043
轨道倾角: 51.900°
近地点辐角 99.425°
升交点赤经 333.134°
平近点角 260.676°
近地点: 629.215km
远地点: 629.819km
周期: 97.301分钟
每日圈数: 14.799391
Detailed Information
使用方式:
暂无
2D Orbit Map
3D Orbit Map
Orbit Altitude Analysis Chart
Orbit Inclination Analysis Chart
Orbit Comprehensive Analysis Chart
View Comprehensive Chart